GW0469 Weather Reports


time (UTC)temp
C
wind
direction
speed
KPH
gust
KPH
rain 1hr
cm
rain 24hr
cm
rain mn
cm
humidity
%
barometer
mb
20260503033959 22 56 0.0 0.0 0.00 0.61 0.61 99 1011.1
20260503033456 22 322 0.0 0.0 0.13 0.61 0.61 99 1010.1
20260503032954 22 176 0.0 0.0 0.13 0.61 0.61 99 1009.7
20260503032452 22 195 0.0 0.0 0.13 0.61 0.61 99 1009.7
20260503031950 22 192 0.0 0.0 0.00 0.58 0.58 99 1009.9
20260503031448 22 325 0.0 0.0 0.00 0.58 0.58 99 1010.1
20260503030944 22 253 0.0 0.0 0.00 0.58 0.58 99 1009.9
20260503030440 22 259 0.0 0.0 0.00 0.58 0.58 99 1009.8
20260503025937 22 175 0.0 0.0 0.30 0.58 0.58 99 1010.4
20260503025434 22 172 0.0 0.0 1.07 0.58 0.58 99 1010.1
20260503024932 22 144 0.0 0.0 0.79 0.53 0.53 99 1010.6
20260503024428 22 349 0.0 0.0 0.00 0.41 0.41 99 1011.0
20260503023926 22 191 0.0 0.0 0.00 0.41 0.41 99 1010.7
20260503023423 22 295 0.0 1.6 0.00 0.41 0.41 99 1011.2
20260503022919 22 273 0.0 0.0 0.00 0.41 0.41 99 1011.1
20260503022414 22 287 0.0 0.0 0.00 0.41 0.41 99 1010.9
20260503021910 22 275 0.0 0.0 0.00 0.41 0.41 99 1010.6
20260503021406 22 197 0.0 0.0 0.00 0.41 0.41 99 1010.5
20260503020904 22 274 0.0 0.0 0.00 0.41 0.41 98 1010.4
20260503020402 21 165 0.0 0.0 0.00 0.41 0.41 98 1010.3
20260503015857 22 187 0.0 0.0 0.00 0.41 0.41 98 1010.2
20260503015355 22 196 0.0 0.0 0.00 0.41 0.41 98 1010.3
20260503014850 22 159 0.0 0.0 0.00 0.41 0.41 98 1010.4
20260503014348 21 170 0.0 0.0 0.00 0.41 0.41 98 1010.6
20260503013846 22 167 0.0 0.0 0.00 0.41 0.41 98 1010.6
20260503013343 21 283 0.0 0.0 0.00 0.41 0.41 98 1010.5
20260503012839 21 187 0.0 0.0 0.00 0.41 0.41 98 1010.5
20260503012337 21 152 0.0 0.0 0.00 0.41 0.41 98 1010.4
20260503011834 21 283 0.0 0.0 0.00 0.41 0.41 97 1010.4
20260503011331 21 286 0.0 0.0 0.00 0.41 0.41 97 1010.5
20260503010827 21 281 0.0 0.0 0.00 0.41 0.41 97 1010.5
20260503010325 21 246 0.0 0.0 0.00 0.41 0.41 97 1010.3
20260503005821 22 171 0.0 0.0 0.00 0.41 0.41 97 1010.2
20260503005319 21 162 0.0 0.0 0.00 0.41 0.41 97 1010.0
20260503004815 21 105 0.0 0.0 0.00 0.41 0.41 97 1010.2
20260503004313 21 87 0.0 0.0 0.00 0.41 0.41 97 1010.3
20260503003810 21 123 0.0 0.0 0.00 0.41 0.41 97 1010.2
20260503003307 21 125 0.0 0.0 0.00 0.41 0.41 97 1010.5
20260503002804 21 153 0.0 0.0 0.00 0.41 0.41 97 1009.9
20260503002301 21 154 0.0 0.0 0.00 0.41 0.41 97 1010.0
20260503001757 21 154 0.0 0.0 0.00 0.41 0.41 97 1009.9
20260503001253 21 155 0.0 0.0 0.00 0.41 0.41 97 1010.0
20260503000751 21 154 0.0 0.0 0.00 0.41 0.41 97 1009.9
20260503000248 21 154 0.0 0.0 0.00 0.41 0.41 97 1010.0
20260502235745 21 143 0.0 0.0 0.00 0.41 0.41 96 1010.1
20260502235243 21 121 0.0 0.0 0.00 0.41 0.41 96 1010.0
20260502234739 21 112 0.0 0.0 0.00 0.41 0.41 96 1010.0
20260502234236 21 149 0.0 0.0 0.00 0.41 0.41 96 1010.2
20260502233732 21 128 0.0 0.0 0.00 0.41 0.41 95 1010.0
20260502233229 21 99 0.0 0.0 0.48 0.41 0.41 95 1009.8
20260502232725 21 124 0.0 0.0 2.46 0.41 0.41 94 1010.2
20260502232222 22 139 0.0 0.0 2.16 0.36 0.36 91 1010.1
20260502231719 25 342 0.0 1.6 0.00 0.00 0.00 79 1010.3
20260502231217 27 40 0.0 0.0 0.00 0.00 0.00 79 1010.0
20260502230716 28 335 1.6 4.8 0.00 0.00 0.00 80 1009.2
20260502230213 28 327 0.0 0.0 0.00 0.00 0.00 79 1009.1
20260502225708 28 311 0.0 1.6 0.00 0.00 0.00 78 1009.1
20260502225206 28 342 0.0 1.6 0.00 0.00 0.00 78 1008.9
20260502224702 28 38 0.0 1.6 0.00 0.00 0.00 77 1008.9
20260502224159 28 328 0.0 1.6 0.00 0.00 0.00 77 1008.7
20260502223657 28 318 0.0 0.0 0.00 0.00 0.00 77 1008.6
20260502223155 28 353 1.6 1.6 0.00 0.00 0.00 76 1008.7
20260502222652 28 294 1.6 3.2 0.00 0.00 0.00 76 1008.4
20260502222149 28 318 0.0 1.6 0.00 0.00 0.00 76 1008.5
20260502221644 28 339 0.0 1.6 0.00 0.00 0.00 75 1008.4
20260502221142 28 357 0.0 0.0 0.00 0.00 0.00 74 1008.7
20260502220637 28 48 0.0 1.6 0.00 0.00 0.00 72 1008.4
20260502220133 28 329 1.6 1.6 0.00 0.00 0.00 72 1008.3
20260502215631 28 323 1.6 3.2 0.00 0.00 0.00 72 1008.2
20260502215128 28 35 1.6 1.6 0.00 0.00 0.00 72 1008.1
20260502214625 29 307 0.0 0.0 0.00 0.00 0.00 69 1007.9
20260502214122 29 4 0.0 0.0 0.00 0.00 0.00 70 1008.2
20260502213620 29 346 0.0 1.6 0.00 0.00 0.00 70 1008.0
20260502213117 30 344 0.0 0.0 0.00 0.00 0.00 69 1008.0
20260502212616 30 9 0.0 0.0 0.00 0.00 0.00 67 1008.0
20260502212114 30 359 1.6 3.2 0.00 0.00 0.00 66 1008.2
20260502211609 30 313 1.6 3.2 0.00 0.00 0.00 64 1007.8
20260502211106 30 347 1.6 3.2 0.00 0.00 0.00 62 1007.8
20260502210603 31 4 1.6 3.2 0.00 0.00 0.00 60 1007.8
20260502210100 31 358 1.6 3.2 0.00 0.00 0.00 60 1008.0
20260502205556 32 267 0.0 1.6 0.00 0.00 0.00 58 1007.7
20260502205054 32 339 1.6 1.6 0.00 0.00 0.00 57 1007.6
20260502204550 32 356 1.6 1.6 0.00 0.00 0.00 55 1007.7
20260502204048 32 331 1.6 1.6 0.00 0.00 0.00 56 1007.7
20260502203545 32 285 1.6 4.8 0.00 0.00 0.00 59 1007.6
20260502203042 32 312 0.0 1.6 0.00 0.00 0.00 59 1007.7
20260502202538 32 3 3.2 9.7 0.00 0.00 0.00 60 1007.5
20260502202036 32 312 0.0 0.0 0.00 0.00 0.00 58 1007.4
20260502201532 32 283 4.8 4.8 0.00 0.00 0.00 57 1007.6
20260502201029 32 324 1.6 1.6 0.00 0.00 0.00 57 1007.4
20260502200525 32 306 3.2 3.2 0.00 0.00 0.00 57 1007.4
20260502200023 32 285 1.6 3.2 0.00 0.00 0.00 55 1007.5
20260502195521 32 300 0.0 1.6 0.00 0.00 0.00 59 1007.6
20260502195016 32 20 0.0 0.0 0.00 0.00 0.00 54 1007.5
20260502194513 32 352 3.2 3.2 0.00 0.00 0.00 52 1007.6
20260502194009 33 339 1.6 3.2 0.00 0.00 0.00 53 1007.4
20260502193506 32 40 0.0 0.0 0.00 0.00 0.00 55 1007.7
20260502193003 32 344 1.6 3.2 0.00 0.00 0.00 54 1007.8
20260502192458 32 301 1.6 3.2 0.00 0.00 0.00 53 1008.0
20260502191955 33 12 3.2 4.8 0.00 0.00 0.00 52 1008.0
20260502191453 33 61 0.0 3.2 0.00 0.00 0.00 55 1008.0
20260502190951 32 329 1.6 3.2 0.00 0.00 0.00 56 1008.1
20260502190448 32 333 4.8 4.8 0.00 0.00 0.00 53 1008.3
20260502185944 32 292 1.6 4.8 0.00 0.00 0.00 55 1008.3
20260502185440 32 270 1.6 3.2 0.00 0.00 0.00 54 1008.4
20260502184937 32 350 3.2 4.8 0.00 0.00 0.00 54 1008.6
20260502184432 32 288 3.2 4.8 0.00 0.00 0.00 55 1008.4
20260502183929 32 4 1.6 3.2 0.00 0.00 0.00 55 1008.5
20260502183425 32 315 3.2 9.7 0.00 0.00 0.00 55 1008.4
20260502182920 32 341 1.6 3.2 0.00 0.00 0.00 55 1008.4
20260502182416 32 322 3.2 8.0 0.00 0.00 0.00 54 1008.6
20260502181912 32 6 1.6 4.8 0.00 0.00 0.00 55 1008.6
20260502181411 32 186 0.0 0.0 0.00 0.00 0.00 52 1008.7
20260502180909 32 321 4.8 4.8 0.00 0.00 0.00 57 1008.8
20260502180406 32 325 3.2 3.2 0.00 0.00 0.00 51 1008.8
20260502170324 31 331 3.2 8.0 0.00 0.00 0.00 64 1009.0
20260502164312 31 323 1.6 3.2 0.00 0.00 0.00 66 1009.3
20260502163808 31 316 3.2 4.8 0.00 0.00 0.00 66 1009.1
20260502163304 31 355 1.6 4.8 0.00 0.00 0.00 66 1009.0
20260502162802 31 357 1.6 4.8 0.00 0.00 0.00 67 1009.0
20260502162258 31 299 1.6 4.8 0.00 0.00 0.00 65 1008.8
20260502161755 31 319 4.8 9.7 0.00 0.00 0.00 67 1008.8
20260502161251 31 324 0.0 1.6 0.00 0.00 0.00 67 1008.9
20260502160750 31 325 4.8 4.8 0.00 0.00 0.00 67 1009.0
20260502160249 31 342 1.6 3.2 0.00 0.00 0.00 67 1008.8
20260502152218 30 332 3.2 4.8 0.00 0.00 0.00 69 1008.8
20260502151715 30 282 0.0 1.6 0.00 0.00 0.00 71 1009.0
20260502151212 30 293 3.2 4.8 0.00 0.00 0.00 71 1008.8
20260502150709 30 322 3.2 3.2 0.00 0.00 0.00 71 1008.9
20260502150206 30 187 0.0 0.0 0.00 0.00 0.00 71 1008.9
20260502140130 28 321 1.6 3.2 0.00 0.00 0.00 77 1008.7
20260502130554 26 315 0.0 3.2 0.00 0.00 0.00 89 1008.6
20260502123538 24 272 0.0 0.0 0.00 0.00 0.00 92 1008.2
20260502123034 23 297 0.0 0.0 0.00 0.00 0.00 92 1008.5
20260502122531 23 179 0.0 0.0 0.00 0.00 0.00 93 1008.5
20260502122028 23 192 0.0 0.0 0.00 0.00 0.00 94 1008.3
20260502121526 23 226 0.0 0.0 0.00 0.00 0.00 94 1008.3
20260502121023 23 193 0.0 0.0 0.00 0.00 0.00 94 1008.4
20260502120519 22 244 0.0 0.0 0.00 0.00 0.00 95 1008.2
20260502115514 22 182 0.0 0.0 0.00 0.00 0.00 95 1008.0
20260502115009 22 183 0.0 0.0 0.00 0.00 0.00 95 1008.2
20260502114507 22 225 0.0 0.0 0.00 0.00 0.00 95 1008.1
20260502114003 22 215 0.0 0.0 0.00 0.00 0.00 95 1008.1
20260502113501 22 200 0.0 0.0 0.00 0.00 0.00 96 1008.1
20260502112959 21 172 0.0 0.0 0.00 0.00 0.00 96 1008.2
20260502112456 21 175 0.0 0.0 0.00 0.00 0.00 96 1008.4
20260502111954 21 157 0.0 0.0 0.00 0.00 0.00 97 1008.4
20260502111451 21 159 0.0 0.0 0.00 0.00 0.00 97 1008.2
20260502110949 21 169 0.0 0.0 0.00 0.00 0.00 97 1008.2
20260502110446 21 158 0.0 0.0 0.00 0.00 0.00 97 1008.2
20260502105943 21 159 0.0 0.0 0.00 0.00 0.00 97 1008.2
20260502105440 21 152 0.0 0.0 0.00 0.00 0.00 97 1008.2
20260502104938 21 155 0.0 0.0 0.00 0.00 0.00 97 1008.3
20260502104435 21 153 0.0 0.0 0.00 0.00 0.00 97 1008.5
20260502103932 21 160 0.0 0.0 0.00 0.00 0.00 97 1008.2
20260502103430 21 177 0.0 0.0 0.00 0.00 0.00 97 1008.2
20260502102927 20 183 0.0 0.0 0.00 0.00 0.00 97 1008.1
20260502102424 21 168 0.0 0.0 0.00 0.00 0.00 97 1008.1
20260502101921 21 166 0.0 0.0 0.00 0.00 0.00 97 1008.2
20260502101419 21 175 0.0 0.0 0.00 0.00 0.00 97 1008.2
20260502100917 21 167 0.0 0.0 0.00 0.00 0.00 97 1008.2
20260502100416 21 170 0.0 0.0 0.00 0.00 0.00 97 1008.4
20260502091350 20 173 0.0 0.0 0.00 0.00 0.00 97 1008.4
20260502090848 20 161 0.0 0.0 0.00 0.00 0.00 97 1008.5
20260502090344 20 153 0.0 0.0 0.00 0.00 0.00 97 1008.4
20260502071239 20 193 0.0 0.0 0.00 0.00 0.00 95 1008.8
20260502070737 19 239 0.0 0.0 0.00 0.00 0.00 95 1008.8
20260502070234 20 202 0.0 0.0 0.00 0.00 0.00 95 1008.9
20260502065733 20 165 0.0 0.0 0.00 0.00 0.00 95 1008.8
20260502065231 20 155 0.0 0.0 0.00 0.00 0.00 94 1008.7
20260502064729 20 161 0.0 0.0 0.00 0.00 0.00 94 1008.8
20260502064226 20 154 0.0 0.0 0.00 0.00 0.00 94 1008.4
20260502063723 20 164 0.0 0.0 0.00 0.00 0.00 93 1008.6
20260502063221 20 157 0.0 0.0 0.00 0.00 0.00 93 1008.5
20260502062718 20 151 0.0 0.0 0.00 0.00 0.00 93 1008.6
20260502062216 20 155 0.0 0.0 0.00 0.00 0.00 93 1008.4
20260502061714 20 160 0.0 0.0 0.00 0.00 0.00 93 1008.6
20260502061211 20 160 0.0 0.0 0.00 0.00 0.00 93 1008.6
20260502060706 20 155 0.0 0.0 0.00 0.00 0.00 93 1008.6
20260502060203 20 159 0.0 0.0 0.00 0.00 0.00 93 1008.8
20260502055701 20 147 0.0 0.0 0.00 0.00 0.00 92 1008.6
20260502055158 20 144 0.0 0.0 0.00 0.00 0.00 92 1008.7
20260502054658 20 151 0.0 0.0 0.00 0.00 0.00 92 1008.8
20260502054154 20 149 0.0 0.0 0.00 0.00 0.00 92 1008.8
20260502053652 20 149 0.0 0.0 0.00 0.00 0.00 93 1009.1
20260502053148 20 149 0.0 0.0 0.00 0.00 0.00 93 1009.0
20260502052647 20 150 0.0 0.0 0.00 0.00 0.00 93 1009.1
20260502052145 20 147 0.0 0.0 0.00 0.00 0.00 94 1009.3
20260502051643 20 143 0.0 0.0 0.00 0.00 0.00 94 1009.2
20260502051140 20 141 0.0 0.0 0.00 0.00 0.00 93 1009.4
20260502050636 20 137 0.0 0.0 0.00 0.00 0.00 93 1009.2
20260502050133 20 143 0.0 0.0 0.00 0.00 0.00 93 1009.1
20260502045630 20 142 0.0 0.0 0.00 0.00 0.00 92 1009.2
20260502045127 20 141 0.0 0.0 0.00 0.00 0.00 92 1009.3
20260502044623 20 137 0.0 0.0 0.00 0.00 0.00 92 1009.2
20260502044120 20 135 0.0 0.0 0.00 0.00 0.00 92 1009.2
20260502043618 20 152 0.0 0.0 0.00 0.00 0.00 91 1009.2
20260502043114 20 153 0.0 0.0 0.00 0.00 0.00 91 1009.0
20260502042609 20 153 0.0 0.0 0.00 0.00 0.00 91 1008.9
20260502042106 20 153 0.0 0.0 0.00 0.00 0.00 90 1008.9
20260502041604 20 153 0.0 0.0 0.00 0.00 0.00 90 1008.9
20260502041101 20 157 0.0 0.0 0.00 0.00 0.00 90 1008.9
20260502040557 20 151 0.0 0.0 0.00 0.00 0.00 90 1008.9
20260502040055 20 147 0.0 0.0 0.00 0.00 0.00 90 1009.1
20260502035550 20 147 0.0 0.0 0.00 0.00 0.00 89 1008.8
20260502035048 21 146 0.0 0.0 0.00 0.00 0.00 89 1009.0
20260502034546 21 146 0.0 0.0 0.00 0.00 0.00 88 1009.1